15:08
Airports
History
Links
Donate
Help keep this website running!
PayPal
Bitcoin
This page is community maintained. The information is intended for PC simulator navigation or reference.
Always use approved charts for navigation.
LEAS
Asturias
Asturias (LEAS)
Castrillón, Asturias, Spain (33459)
(C)
Lat/Lng:43° 33' 48.59" N / 6° 2' 4.81" W
43.563496 / -6.03467
Elevation:416'ft / 127mMSL
ID / ICAO:LEAS
Runways:1
Longest:11-29
Asphalt 2,205m / 7,234ft
Controlled:Yes
METAR15:00 GMT 2018-01-20
Altimeter: 30.21
Visibility: 6.2 statute miles
Wind: 13 knots (from 240°)
Temp: 16°c / 61°f
Humidity: 63.1%

METAR: LEAS 201500Z 24013KT 220V280 9999 FEW050 BKN060 16/09 Q1023 NOSIG

(Powered by phpweather)
Airport Radio Frequencies
Ground: 121.7
Tower: 118.15
Approach: 118.15
Nearby VORs <50NM
Nearby NDBs
Runway 11 / 29
Dimensions:2204.8 x 45.1m 7234' x 148'ft
Surface:Asphalt
Edge Lights:High intensity
Runway 11 [A]Runway 29 [B]
Heading:108°TH 288°TH
Lat:
Lng:
43° 33' 59.64"N
6° 2' 51.51"W
43° 33' 37.53"N
6° 1' 18.12"W
ALS:Calvert ILS Cat II
User Notes and Comments
43° 33' 48.59" N / 6° 2' 4.81" W
Distance To
Airport ID:
Nearby Airports
(U) LA MORGAL 13.8 NM
LEMR SE 132°
(C) Leon 69.9 NM
LELN ( WX ) SSE 163°
(U) Rozas 78.5 NM
LERO WSW 246°
(C) Santander 111.4 NM
LEXJ ( WX ) E 94°
(C) A Coruna 118.9 NM
LECO ( WX ) W 261°
(U) BRAGANCA 122.7 NM
LPBG SSW 196°
(C) Santiago 128.4 NM
LEST ( WX ) WSW 249°
VFR Chart
Flight Planning at SkyVector.com